{"data":{"norad_id":68929,"intl_designator":"2026-098L","name":"KUIPER-00414","alt_names":[],"object_type":"PAYLOAD","status":"ACTIVE","operator":null,"country":"US","launch_date":"2026-04-30","launch_site_code":"FRGUI","launch_vehicle":null,"mission":null,"orbit_class":"UNKNOWN","rcs_meters":null,"size_class":null,"mass_kg":null,"dimensions":null,"purposes":[],"wikipedia_slug":null,"has_3d_model":false,"image_url":null,"decayed_at":null,"tle_current":{"epoch":"2026-05-25T02:48:59.638752Z","epoch_age_seconds":64862,"freshness":"FRESH","line1":"1 68929U 26098L   26145.11735693  .00006021  00000+0  21821-3 0  9997","line2":"2 68929  51.8746 179.6220 0023812  69.1422 291.2108 15.29519644  3792","mean_motion":15.29519644,"eccentricity":0.0023812,"inclination_deg":51.8746,"raan_deg":179.622,"arg_perigee_deg":69.1422,"mean_anomaly_deg":291.2108,"bstar":0.00021821,"rev_number":379,"period_min":94.147205343118,"perigee_km":460.92320181246,"apogee_km":493.57128373024,"semimajor_km":6855.3842427714,"source":"CELESTRAK","updated_at":"2026-05-25T13:38:08.794533Z"}}}